DW9227 Weather Reports


Display with metric or nautical units.
time (UTC)temp
F
wind
direction
speed
MPH
gust
MPH
rain 1hr
in
rain 24hr
in
rain mn
in
humidity
%
barometer
mb
20260904173050 85 93 0.0 0.0 0.00 0.00 0.00 51 1016.2
20260904171553 86 93 0.0 0.0 0.00 0.00 0.00 50 1016.2
20260904170045 86 93 0.0 1.0 0.00 0.00 0.00 49 1016.2
20260904164544 87 93 0.0 1.0 0.00 0.00 0.00 48 1016.2
20260904163053 88 94 0.0 1.0 0.00 0.00 0.00 48 1016.1
20260904161543 89 94 0.0 4.0 0.00 0.00 0.00 48 1016.1
20260904160042 89 130 0.0 5.0 0.00 0.00 0.00 48 1016.2
20260904154541 89 133 0.0 7.0 0.00 0.00 0.00 47 1016.3
20260904153049 89 150 1.0 8.0 0.00 0.00 0.00 48 1016.4
20260904151539 89 131 0.0 4.0 0.00 0.00 0.00 48 1016.5
20260904150043 89 118 0.0 7.0 0.00 0.00 0.00 47 1016.5
20260904144538 89 134 0.0 7.0 0.00 0.00 0.00 47 1016.5
20260904143036 89 144 0.0 5.0 0.00 0.00 0.00 48 1016.6
20260904141546 89 128 0.0 8.0 0.00 0.00 0.00 47 1016.7
20260904140034 89 110 0.0 9.0 0.00 0.00 0.00 47 1016.8
20260904134532 90 126 2.0 11.0 0.00 0.00 0.00 46 1016.9
20260904133032 89 134 1.0 7.0 0.00 0.00 0.00 47 1017.0
20260904131529 89 126 1.0 12.0 0.00 0.00 0.00 47 1017.0
20260904130028 89 159 1.0 11.0 0.00 0.00 0.00 46 1017.1
20260904124526 89 125 0.0 8.0 0.00 0.00 0.00 46 1017.3
20260904123025 89 131 3.0 11.0 0.00 0.00 0.00 46 1017.4
20260904121524 89 119 1.0 7.0 0.00 0.00 0.00 46 1017.6
20260904120021 89 148 0.0 8.0 0.00 0.00 0.00 46 1017.7
20260904114534 88 87 0.0 8.0 0.00 0.00 0.00 47 1017.9
20260904113016 88 108 0.0 4.0 0.00 0.00 0.00 47 1018.1
20260904111514 88 124 0.0 7.0 0.00 0.00 0.00 46 1018.3
20260904110022 88 102 0.0 6.0 0.00 0.00 0.00 47 1018.5
20260904104510 88 88 0.0 6.0 0.00 0.00 0.00 46 1018.5
20260904103006 87 124 0.0 7.0 0.00 0.00 0.00 47 1018.8
20260904101507 86 125 0.0 1.0 0.00 0.00 0.00 49 1019.0
20260904100100 86 125 0.0 0.0 0.00 0.00 0.00 47 1019.3
20260904094559 85 125 0.0 0.0 0.00 0.00 0.00 43 1019.6
20260904093056 85 125 0.0 0.0 0.00 0.00 0.00 44 1019.8
20260904091554 84 125 0.0 0.0 0.00 0.00 0.00 41 1019.9
20260904090049 82 125 0.0 0.0 0.00 0.00 0.00 45 1019.9
20260904084547 80 125 0.0 0.0 0.00 0.00 0.00 45 1020.1
20260904083053 80 125 0.0 0.0 0.00 0.00 0.00 46 1020.0
20260904081540 77 125 0.0 0.0 0.00 0.00 0.00 47 1020.0
20260904080036 76 125 0.0 0.0 0.00 0.00 0.00 48 1020.0
20260904074536 74 125 0.0 4.0 0.00 0.00 0.00 51 1020.1
20260904073030 73 124 0.0 6.0 0.00 0.00 0.00 53 1020.3
20260904071533 72 124 0.0 0.0 0.00 0.00 0.00 56 1020.4
20260904070026 71 124 0.0 0.0 0.00 0.00 0.00 59 1020.4
20260904064524 68 124 0.0 0.0 0.00 0.00 0.00 63 1020.4
20260904063037 67 124 0.0 0.0 0.00 0.00 0.00 65 1020.3
20260904061522 67 124 0.0 0.0 0.00 0.00 0.00 65 1020.2
20260904060020 67 124 0.0 0.0 0.00 0.00 0.00 67 1020.1
20260904054520 67 124 0.0 0.0 0.00 0.00 0.00 64 1020.0
20260904053029 67 124 0.0 0.0 0.00 0.00 0.00 67 1019.9
20260904051517 67 124 0.0 0.0 0.00 0.00 0.00 66 1019.9
20260904050016 67 124 0.0 0.0 0.00 0.00 0.00 64 1019.7
20260904044530 67 124 0.0 0.0 0.00 0.00 0.00 66 1019.7
20260904043015 67 124 0.0 0.0 0.00 0.00 0.00 68 1019.6
20260904041513 68 124 0.0 0.0 0.00 0.00 0.00 66 1019.5
20260904040011 68 124 0.0 0.0 0.00 0.00 0.00 65 1019.4
20260904034511 68 124 0.0 0.0 0.00 0.00 0.00 64 1019.5
20260904033009 68 124 0.0 0.0 0.00 0.00 0.00 66 1019.6
20260904031508 69 124 0.0 0.0 0.00 0.00 0.00 65 1019.7
20260904030005 69 124 0.0 0.0 0.00 0.00 0.00 63 1019.6
20260904024502 70 124 0.0 0.0 0.00 0.00 0.00 63 1019.5
20260904023001 70 124 0.0 0.0 0.00 0.00 0.00 63 1019.5
20260904021601 70 124 0.0 0.0 0.00 0.00 0.00 63 1019.5
20260904021501 70 124 0.0 0.0 0.00 0.00 0.00 64 1019.6
20260904020201 70 124 0.0 0.0 0.00 0.00 0.00 63 1019.6
20260904014601 71 124 0.0 0.0 0.00 0.00 0.00 63 1019.5
20260904013058 70 124 0.0 0.0 0.00 0.00 0.00 65 1019.5
20260904011558 70 124 0.0 0.0 0.00 0.00 0.00 65 1019.5
20260904004600 70 124 0.0 0.0 0.00 0.00 0.00 67 1019.5
20260904003054 70 124 0.0 0.0 0.00 0.00 0.00 67 1019.5
20260904001553 70 124 0.0 0.0 0.00 0.00 0.00 67 1019.6
20260904000126 71 124 0.0 0.0 0.00 0.00 0.00 69 1019.7
20260903234549 71 124 0.0 0.0 0.00 0.00 0.00 68 1019.8
20260903233047 72 124 0.0 0.0 0.00 0.00 0.00 68 1019.8
20260903231546 72 124 0.0 0.0 0.00 0.00 0.00 67 1019.8
20260903230048 72 124 0.0 0.0 0.00 0.00 0.00 66 1019.9
20260903224642 73 124 0.0 0.0 0.00 0.00 0.00 65 1019.8
20260903223044 73 124 0.0 3.0 0.00 0.00 0.00 65 1019.6
20260903221540 73 123 0.0 0.0 0.00 0.00 0.00 68 1019.6
20260903220042 73 123 0.0 0.0 0.00 0.00 0.00 68 1019.7
20260903214541 73 123 0.0 0.0 0.00 0.00 0.00 71 1019.6
20260903213040 73 123 0.0 0.0 0.00 0.00 0.00 72 1019.7
20260903211602 73 123 0.0 0.0 0.00 0.00 0.00 70 1019.6
20260903210035 73 123 0.0 0.0 0.00 0.00 0.00 71 1019.4
20260903204538 73 123 0.0 0.0 0.00 0.00 0.00 71 1019.3
20260903203035 73 123 0.0 0.0 0.00 0.00 0.00 70 1019.3
20260903201534 74 123 0.0 0.0 0.00 0.00 0.00 70 1019.2
20260903200032 74 123 0.0 0.0 0.00 0.00 0.00 68 1019.1
20260903194532 75 123 0.0 0.0 0.00 0.00 0.00 68 1018.9
20260903193032 75 123 0.0 0.0 0.00 0.00 0.00 67 1018.9
20260903191531 75 123 0.0 0.0 0.00 0.00 0.00 67 1018.9
20260903190031 76 123 0.0 0.0 0.00 0.00 0.00 66 1018.7
20260903184530 77 123 0.0 0.0 0.00 0.00 0.00 65 1018.4
20260903183030 78 123 0.0 0.0 0.00 0.00 0.00 63 1018.3
20260903181529 79 123 0.0 0.0 0.00 0.00 0.00 62 1018.2
20260903180029 79 123 0.0 0.0 0.00 0.00 0.00 61 1018.1
20260903174549 81 123 0.0 0.0 0.00 0.00 0.00 58 1017.8